Terminal Aerodrome Forecast
Issued by NWS

Home | Current Version | Previous Version | Text Only | Print | Product List | Glossary On
Versions: 1 2 3 4 5 6 7 8 9 10 11 12 13 14 15 16 17 18 19 20
285
FTUS41 KPBZ 101307 AAA
TAFDUJ
TAF AMD
KDUJ 101307Z 1013/1112 25013KT 2SM -SN BR OVC010
      TEMPO 1013/1014 3/4SM -SHSN
     FM102100 25010G19KT 1 1/2SM -SHSN OVC007
     FM110500 29010G16KT 4SM -SHSN OVC010=

USA.gov is the U.S. government's official web portal to all federal, state and local government web resources and services.